Regional Weather Roundup
Issued by NWS Northern Indiana

Home | Current Version | Previous Version | Text Only | Print | Product List | Glossary Off
Versions: 1 2 3 4 5 6 7 8 9 10 11 12 13 14 15 16 17 18 19 20 21 22 23 24 25 26 27 28 29 30 31 32 33 34 35 36 37 38 39 40 41 42 43 44 45 46 47 48 49 50

000
ASUS43 KIWX 062300
RWRIWX

KIWX WEATHER ROUNDUP
NATIONAL WEATHER SERVICE NORTHERN INDIANA
600 PM EST FRI MAR 06 2015

NOTE: "FAIR" INDICATES FEW OR NO CLOUDS BELOW 12,000 FEET WITH NO
SIGNIFICANT WEATHER AND/OR OBSTRUCTIONS TO VISIBILITY.

* THESE STATIONS ARE NOT UNDER NWS QUALITY CONTROL. THEY ALSO MAY NOT
  REPORT WEATHER SUCH AS PRECIPITATION OR FOG.

INZ001>027-070000-
NORTHERN INDIANA

CITY           SKY/WX    TMP DP  RH WIND       PRES   REMARKS
GARY*          CLEAR     27   9  46 SW14G32   30.24F WCI  15
KNOX*            N/A     27  -4  26 SW16      30.25S WCI  14
SOUTH BEND     CLEAR     25   9  50 S15G24    30.23F WCI  13
ELKHART*       PTCLDY    25   7  46 S12       30.24  WCI  14
GOSHEN         MOCLDY    23  10  57 S13       30.24F WCI  11
MONTICELLO*    CLEAR     27  12  53 S10       30.27S WCI  17
WARSAW*        CLEAR     27  10  50 S9        30.25S WCI  17
ANGOLA*        MOCLDY    21   7  53 S14       30.24F WCI   8
FORT WAYNE     MOCLDY    23  12  62 S13       30.28F WCI  11
PERU/GRISSOM   CLEAR     26  11  53 SW12      30.26S WCI  15

$$
INZ028>050-070000-
CENTRAL INDIANA

CITY           SKY/WX    TMP DP  RH WIND       PRES   REMARKS
LAFAYETTE      CLEAR     27  12  53 SW10      30.30R WCI  17
KOKOMO*          N/A    N/A N/A N/A MISG        N/A
MUNCIE*        CLEAR     25  11  55 S16G24    30.29F WCI  12
INDIANAPOLIS   CLEAR     30   9  41 S16       30.30F WCI  19

$$
MIZ043>046-050>051-056>058-064>065-071>073-077>080-070000-
SOUTHWEST LOWER MICHIGAN

CITY           SKY/WX    TMP DP  RH WIND       PRES   REMARKS
BATTLE CREEK   CLOUDY    23   7  50 S17       30.19F WCI   9
BENTON HARBOR  PTCLDY    23   8  52 S22G28    30.21F WCI   8
COLDWATER*     MOCLDY    23   7  51 S6        30.22F WCI  15
HILLSDALE*     CLOUDY    22   7  52 S12       30.21F WCI  11
HOLLAND        CLOUDY    25   8  48 S13       30.17F WCI  14
GRAND RAPIDS   MOCLDY    23   6  48 SW13      30.16F WCI  11
KALAMAZOO      CLOUDY    23   8  52 S17       30.20F WCI   9
STURGIS*       CLOUDY    21  10  63 S14       30.22F WCI   8
THREE RIVERS*  CLOUDY    24   9  53 S15G22    30.22F WCI  11

$$
OHZ001>008-015>018-024>025-070000-
NORTHWEST OHIO

CITY           SKY/WX    TMP DP  RH WIND       PRES   REMARKS
DEFIANCE       MOCLDY    23  11  60 S13       30.29F WCI  11
FINDLAY        CLEAR     22  11  62 S14       30.30F WCI   9
TOLEDO EXPRESS MOCLDY    22   9  57 S9G18     30.28F WCI  12
TOLEDO METCALF PTCLDY    22  11  62 SW10      30.31F WCI  11
LIMA           CLEAR     24  11  57 S10       30.30F WCI  14

$$
AND FOR LAKE MICHIGAN COASTAL AND OPEN LAKE BUOY OBSERVATIONS

STATION/POSITION TEMP    WIND        PRES    VSBY  WAVE
                 AIR SEA DIR/SP/G                  HT/PER
                 (F)     (DEG/KT/KT) (MB)    (MI)  (FT/S)
CALUMET HARBOR    25     200/ 18/ 27 1022.1F
MICHIGAN CITY     24     170/ 14/ 20   N/A
SAINT JOSEPH      24     170/ 10/ 21 1023.4F

$$
&&


USA.gov is the U.S. government's official web portal to all federal, state and local government web resources and services.